Hourly Data Report for October 15, 2013

All times are specified in Local Standard Time (LST). Add 1 hour to adjust for Daylight Saving Time where and when it is observed.

ARVIAT A
NUNAVUT

61°05'38.000" N
94°04'18.000" W
10.40 m
2300427
71174
YEK

Download Data

Hourly Data (October 2013)
Hourly Data Report for October 15, 2013
Temp Definition
°C
Dew Point Temp Definition
°C
Rel Hum Definition
%
Wind Dir Definition
10's deg

Wind Spd Definition
km/h
Visibility Definition
km
Stn Press Definition
kPa
Hmdx Definition


Wind Chill Definition


Weather Definition


TIME
00:00 Legend Double Dagger -1.3 -3.8 83 31 37 16.1 101.26   -9 LegendNANA
01:00 Legend Double Dagger -2.3 -4.3 87 31 33 16.1 101.28   -10 LegendNANA
02:00 Legend Double Dagger -2.2 -4.1 87 31 35 16.1 101.24   -10 LegendNANA
03:00 Legend Double Dagger -2.2 -4.1 87 30 33 16.1 101.22   -10 LegendNANA
04:00 Legend Double Dagger -2.3 -4.0 88 32 33 16.1 101.22   -10 LegendNANA
05:00 Legend Double Dagger -2.7 -4.3 89 32 35 16.1 101.20   -11 LegendNANA
06:00 Legend Double Dagger -2.9 -3.7 95 31 28 16.1 101.18   -10 LegendNANA
07:00 Legend Double Dagger -4.0 -4.7 95 32 18 16.1 101.16   -10 LegendNANA
08:00 Legend Double Dagger -4.6 -5.0 97 30 17 16.1 101.14   -10 LegendNANA
09:00 Legend Double Dagger -3.3 -4.2 94 30 18 16.1 101.04   -9 LegendNANA
10:00 Legend Double Dagger -2.9 -4.3 90 29 15 16.1 101.01   -8 LegendNANA
11:00 Legend Double Dagger -3.0 -4.0 93 28 15 16.1 100.95   -8 LegendNANA
12:00 Legend Double Dagger -2.8 -3.7 94 26 15 16.1 100.94   -8 LegendNANA
13:00 Legend Double Dagger -3.4 -3.7 98 25 18 16.1 100.87   -9 LegendNANA
14:00 Legend Double Dagger -3.3 -3.6 98 22 17 16.1 100.77   -9 LegendNANA
15:00 Legend Double Dagger -3.2 -3.5 98 21 15 16.1 100.68   -8 LegendNANA
16:00 Legend Double Dagger -2.2 -2.5 98 19 15 16.1 100.56   -7 LegendNANA
17:00 Legend Double Dagger -1.0 -1.4 97 16 15 16.1 100.48   -6 LegendNANA
18:00 Legend Double Dagger -0.2 -0.8 96 16 18 16.1 100.41   -5 LegendNANA
19:00 Legend Double Dagger 0.5 -0.4 94 15 24 16.1 100.33     LegendNANA
20:00 Legend Double Dagger 1.0 0.1 94 15 30 16.1 100.21     LegendNANA
21:00 Legend Double Dagger 0.6 0.3 98 15 30 4.8 100.13     LegendNANA
22:00 Legend Double Dagger 0.7 0.6 99 13 28 16.1 100.00     LegendNANA
23:00 Legend Double Dagger 0.6 0.6 100 12 32 12.9 99.84     LegendNANA

Notes on Data Quality.

Legend

  • E = Estimated
  • M = Missing
  • NA = Not Available
  • ‡ = Partner data that is not subject to review by the National Climate Archives
Date modified: